Погода в Березовке

Россия / Амурская область     53°27′53″N   126°57′55″E
темп.,
°C
ветер,
м/с
пор.,
м/с
влажн.,
%
обл.,
%
осадки,
мм/ч
давл.,
гПа
погр.,
м
27 сентября, пн
пн2700:00+14юв51472100 0.0 1010731
03:00+13юв61579100 0.1 1007755
06:00+12ююв61494100 7.2 1004872
09:00+12ююв51196100 11.1 1003700
12:00+14ю4892100 0.5 1001682
15:00+13з3780100 0.9 1003962
18:00+9зсз24805 0.1 100569
21:00+7ююв11815 0.1 100710
28 сентября, вт
вт2800:00+6ю28864 0.0 1008184
03:00+4ююз39840 0.0 1009207
06:00+4ююв2587100 0.0 100995
09:00+8ююз376873 0.0 1009312
12:00+12ю3551100 0.0 10071405
15:00+7с3593100 2.5 1005200
18:00+7с4797100 6.6 1002281
21:00+6ссз3793100 11.7 1002339
29 сентября, ср
ср2900:00+6сз3793100 0.9 1001432
03:00+5сз4793100 0.9 1002537
06:00+6зсз368341 0.0 1003227
09:00+6з24822 0.0 1005303
12:00+10зюз236398 0.0 10051051
15:00+12зюз235174 0.2 10041581
18:00+7зюз22729 0.3 100514
21:00+4з11815 0.3 100614
30 сентября, чт
чт3000:00+3зсз1186100 0.0 100610
03:00+3зсз1190100 0.0 100514
06:00+2зсз1193100 0.0 100412
09:00+5ссз2280100 0.0 1003269
12:00+8ссз2268100 0.2 1002950
15:00+8ссз3573100 1.8 1001854
18:00+5зсз3783100 0.5 1002175
21:00+2зсз389052 0.5 1002184
1 октября, пт
пт100:00+1зсз398765 0.0 1002225
03:000з3890100 0.0 1002186
06:000з3889100 0.0 1003220
09:00+2зсз477447 0.0 1003462
12:00+6зсз4555100 0.0 10031561
15:00+7зсз455396 0.1 10041495
18:00+3з2271100 0.1 100520
21:00+1зюз22798 0.1 100613